This is the latest recevied weather packets stored in our database for station/object VK6DUG. If no packets are shown the sender has not sent any weather packets the latest 10 day(s).
| Time | Temp. | Humidity | Pressure | Rain* | Wind** | Luminosity | Snow |
|---|---|---|---|---|---|---|---|
| 1778189431 | 11.67° C | 77% | 1032.8 hPa | 0 mm | - | 0 W/m² | - |
| 1778188826 | 12.22° C | 76% | 1032.8 hPa | 0 mm | - | 0 W/m² | - |
| 1778188222 | 11.67° C | 76% | 1032.8 hPa | 0 mm | - | 0 W/m² | - |
| 1778187635 | 12.22° C | 75% | 1032.8 hPa | 0 mm | - | 0 W/m² | - |
| 1778187032 | 12.22° C | 75% | 1032.6 hPa | 0 mm | - | 0 W/m² | - |
| 1778186427 | 12.22° C | 74% | 1032.7 hPa | 0 mm | - | 0 W/m² | - |
| 1778185820 | 12.78° C | 74% | 1032.6 hPa | 0 mm | - | 0 W/m² | - |
| 1778185216 | 12.78° C | 73% | 1032.4 hPa | 0 mm | - | 0 W/m² | - |
| 1778184632 | 13.33° C | 72% | 1032.4 hPa | 0 mm | - | 0 W/m² | - |
| 1778184028 | 13.33° C | 73% | 1032.2 hPa | 0 mm | - | 0 W/m² | - |
| 1778183424 | 13.33° C | 73% | 1032.3 hPa | 0 mm | - | 0 W/m² | - |
| 1778182820 | 13.33° C | 72% | 1032.2 hPa | 0 mm | - | 0 W/m² | - |
| 1778182236 | 13.33° C | 72% | 1032.2 hPa | 0 mm | - | 0 W/m² | - |
| 1778181633 | 13.89° C | 71% | 1032.2 hPa | 0 mm | - | 0 W/m² | - |
| 1778181030 | 13.89° C | 71% | 1032.3 hPa | 0 mm | - | 0 W/m² | - |
| 1778180425 | 13.89° C | 70% | 1032.4 hPa | 0 mm | - | 0 W/m² | - |
| 1778179822 | 13.89° C | 69% | 1032.2 hPa | 0 mm | - | 0 W/m² | - |
| 1778179217 | 14.44° C | 68% | 1032.1 hPa | 0 mm | - | 0 W/m² | - |
| 1778178635 | 14.44° C | 68% | 1032.1 hPa | 0 mm | - | 0 W/m² | - |
| 1778178032 | 15° C | 67% | 1032 hPa | 0 mm | - | 0 W/m² | - |
| 1778177426 | 15° C | 66% | 1032.1 hPa | 0 mm | - | 0 W/m² | - |
| 1778176821 | 15.56° C | 65% | 1032.1 hPa | 0 mm | - | 0 W/m² | - |
| 1778176216 | 15.56° C | 65% | 1032 hPa | 0 mm | - | 0 W/m² | - |
| 1778175633 | 15.56° C | 65% | 1032 hPa | 0 mm | - | 0 W/m² | - |
| 1778175030 | 15.56° C | 65% | 1032.1 hPa | 0 mm | - | 0 W/m² | - |
* Rain latest hour (hover to see other rain measurements)
** Current wind speed in m/s (hover to see current wind gust speed)